EJA23 KGUC-KMZJ

Flight info

Callsign EJA23
Flight time 1h 4m
Altitude 34000
Route DRO V421 ZUN
Aircraft C700/M-SBDGHM1RWXY/LB2

Departure

Time 2026-05-08 19:56
Airport Gunnison Crested Butte Regional Airport (KGUC)

Arrival

Time 2026-05-08 21:00
Airport Pinal Airpark (KMZJ)
Time Latitude Longitude Altitude Speed Heading
2026-05-08 19:21 38.53502 -106.94176 7661 ft 0 kts 80°
2026-05-08 19:47 38.53503 -106.94174 7661 ft 1 kts 83°
2026-05-08 19:48 38.53498 -106.94131 7661 ft 4 kts 101°
2026-05-08 19:48 38.53494 -106.94111 7661 ft 7 kts 106°
2026-05-08 19:49 38.53470 -106.94026 7661 ft 13 kts 84°
2026-05-08 19:49 38.53498 -106.93910 7662 ft 15 kts 72°
2026-05-08 19:49 38.53529 -106.93774 7662 ft 17 kts 74°
2026-05-08 19:49 38.53565 -106.93619 7663 ft 19 kts 73°
2026-05-08 19:50 38.53603 -106.93451 7664 ft 21 kts 74°
2026-05-08 19:50 38.53649 -106.93267 7664 ft 23 kts 71°
2026-05-08 19:50 38.53696 -106.93069 7665 ft 24 kts 75°
2026-05-08 19:50 38.53738 -106.92863 7665 ft 24 kts 75°
2026-05-08 19:51 38.53780 -106.92655 7667 ft 24 kts 75°
2026-05-08 19:51 38.53834 -106.92448 7668 ft 25 kts 70°
2026-05-08 19:51 38.53885 -106.92240 7668 ft 25 kts 73°
2026-05-08 19:51 38.53934 -106.92028 7670 ft 25 kts 74°
2026-05-08 19:52 38.53984 -106.91815 7669 ft 26 kts 73°
2026-05-08 19:52 38.54036 -106.91592 7671 ft 25 kts 73°
2026-05-08 19:52 38.54068 -106.91441 7671 ft 6 kts 88°
2026-05-08 19:52 38.54062 -106.91420 7671 ft 0 kts 121°
2026-05-08 19:55 38.54036 -106.91391 7669 ft 10 kts 150°
2026-05-08 19:56 38.53957 -106.91424 7670 ft 17 kts 250°
2026-05-08 19:56 38.53886 -106.91742 7671 ft 71 kts 253°
2026-05-08 19:56 38.53669 -106.92691 7674 ft 149 kts 254°
2026-05-08 19:56 38.53399 -106.94069 8513 ft 163 kts 257°
2026-05-08 19:57 38.53119 -106.95431 9774 ft 147 kts 256°
2026-05-08 19:57 38.52803 -106.96726 10773 ft 169 kts 257°
2026-05-08 19:57 38.52452 -106.98303 11613 ft 193 kts 257°
2026-05-08 19:57 38.52072 -106.99867 13146 ft 194 kts 254°
2026-05-08 19:58 38.51497 -107.01490 14288 ft 206 kts 236°
2026-05-08 19:58 38.50312 -107.02536 15567 ft 213 kts 205°
2026-05-08 19:58 38.48793 -107.02942 16422 ft 236 kts 192°
2026-05-08 19:58 38.47050 -107.02756 16743 ft 276 kts 169°
2026-05-08 19:59 38.45076 -107.02034 16994 ft 309 kts 168°
2026-05-08 19:59 38.42876 -107.01567 17353 ft 334 kts 178°
2026-05-08 19:59 38.40547 -107.01584 17517 ft 320 kts 188°
2026-05-08 19:59 38.38487 -107.02051 17450 ft 284 kts 201°
2026-05-08 20:00 38.36752 -107.03002 17405 ft 261 kts 213°
2026-05-08 20:00 38.35145 -107.04141 17469 ft 279 kts 214°
2026-05-08 20:00 38.33342 -107.05363 17846 ft 307 kts 210°
2026-05-08 20:00 38.31313 -107.06553 18185 ft 336 kts 208°
2026-05-08 20:01 38.29091 -107.07824 18491 ft 362 kts 208°
2026-05-08 20:01 38.26789 -107.09203 19289 ft 367 kts 210°
2026-05-08 20:01 38.24480 -107.10613 20235 ft 369 kts 210°
2026-05-08 20:01 38.22144 -107.12017 21077 ft 374 kts 209°
2026-05-08 20:02 38.19771 -107.13422 21941 ft 377 kts 209°
2026-05-08 20:02 38.17391 -107.14845 22790 ft 380 kts 210°
2026-05-08 20:02 38.14984 -107.16293 23620 ft 385 kts 210°
2026-05-08 20:02 38.12580 -107.17731 24313 ft 390 kts 210°
2026-05-08 20:03 38.10106 -107.19200 25029 ft 394 kts 210°
2026-05-08 20:03 38.07604 -107.20689 25669 ft 400 kts 210°
2026-05-08 20:03 38.05075 -107.22202 26302 ft 404 kts 210°
2026-05-08 20:03 38.02515 -107.23731 26885 ft 409 kts 210°
2026-05-08 20:04 37.99920 -107.25271 27526 ft 414 kts 210°
2026-05-08 20:04 37.97296 -107.26830 28157 ft 418 kts 210°
2026-05-08 20:04 37.94650 -107.28405 28758 ft 423 kts 210°
2026-05-08 20:04 37.91964 -107.30000 29390 ft 428 kts 210°
2026-05-08 20:05 37.89253 -107.31606 30016 ft 432 kts 210°
2026-05-08 20:05 37.86515 -107.33228 30524 ft 437 kts 210°
2026-05-08 20:05 37.83742 -107.34872 30994 ft 441 kts 210°
2026-05-08 20:05 37.80953 -107.36525 31390 ft 446 kts 210°
2026-05-08 20:06 37.78128 -107.38192 31793 ft 450 kts 210°
2026-05-08 20:06 37.75278 -107.39874 32216 ft 453 kts 210°
2026-05-08 20:06 37.72412 -107.41571 32694 ft 456 kts 209°
2026-05-08 20:06 37.69565 -107.43250 33020 ft 460 kts 209°
2026-05-08 20:07 37.66624 -107.44975 33561 ft 460 kts 209°
2026-05-08 20:07 37.63725 -107.46681 33973 ft 462 kts 209°
2026-05-08 20:07 37.60822 -107.48397 33948 ft 474 kts 209°
2026-05-08 20:07 37.57758 -107.50202 33961 ft 485 kts 209°
2026-05-08 20:08 37.51552 -107.53835 33941 ft 504 kts 209°
2026-05-08 20:08 37.45148 -107.57585 33938 ft 503 kts 208°
2026-05-08 20:09 37.38833 -107.61277 33906 ft 503 kts 208°
2026-05-08 20:09 37.32432 -107.65017 33915 ft 509 kts 208°
2026-05-08 20:10 37.26006 -107.68754 34055 ft 508 kts 208°
2026-05-08 20:10 37.19636 -107.72462 34077 ft 507 kts 208°
2026-05-08 20:11 37.13457 -107.76573 34074 ft 499 kts 218°
2026-05-08 20:11 37.07761 -107.81533 33879 ft 500 kts 218°
2026-05-08 20:12 37.02021 -107.86484 33879 ft 502 kts 218°
2026-05-08 20:12 36.96276 -107.91458 33906 ft 502 kts 218°
2026-05-08 20:13 36.90557 -107.96379 33942 ft 495 kts 218°
2026-05-08 20:13 36.84907 -108.01249 33986 ft 493 kts 219°
2026-05-08 20:14 36.79234 -108.06120 34025 ft 496 kts 218°
2026-05-08 20:14 36.73386 -108.10801 34052 ft 504 kts 210°
2026-05-08 20:15 36.67140 -108.14641 34059 ft 503 kts 210°
2026-05-08 20:15 36.60887 -108.18520 34035 ft 502 kts 210°
2026-05-08 20:16 36.54636 -108.22361 33916 ft 500 kts 210°
2026-05-08 20:16 36.48399 -108.26206 33911 ft 501 kts 210°
2026-05-08 20:17 36.42119 -108.30056 33907 ft 504 kts 210°
2026-05-08 20:17 36.35828 -108.33915 33906 ft 504 kts 210°
2026-05-08 20:18 36.29544 -108.37757 33902 ft 503 kts 210°
2026-05-08 20:18 36.23266 -108.41591 33895 ft 502 kts 210°
2026-05-08 20:19 36.16985 -108.45420 33883 ft 503 kts 209°
2026-05-08 20:19 36.10746 -108.49216 33876 ft 503 kts 209°
2026-05-08 20:20 36.04453 -108.53038 33874 ft 504 kts 209°
2026-05-08 20:20 35.98141 -108.56865 33873 ft 505 kts 209°
2026-05-08 20:21 35.92885 -108.60046 33863 ft 507 kts 209°
2026-05-08 20:21 35.86551 -108.63873 33864 ft 506 kts 209°
2026-05-08 20:22 35.80242 -108.67678 33856 ft 503 kts 209°
2026-05-08 20:22 35.73967 -108.71457 33849 ft 502 kts 209°
2026-05-08 20:23 35.67663 -108.75247 34049 ft 506 kts 209°
2026-05-08 20:23 35.61322 -108.79050 34122 ft 506 kts 209°
2026-05-08 20:24 35.55014 -108.82828 34131 ft 502 kts 209°
2026-05-08 20:24 35.48741 -108.86580 34126 ft 502 kts 209°
2026-05-08 20:25 35.42370 -108.90155 34096 ft 506 kts 207°
2026-05-08 20:25 35.35935 -108.93749 34026 ft 508 kts 207°
2026-05-08 20:26 35.29499 -108.97301 33954 ft 507 kts 207°
2026-05-08 20:26 35.23080 -109.00859 33885 ft 505 kts 207°
2026-05-08 20:27 35.16669 -109.04395 33858 ft 506 kts 207°
2026-05-08 20:27 35.10247 -109.07936 33860 ft 507 kts 207°
2026-05-08 20:28 35.03857 -109.11451 33855 ft 507 kts 207°
2026-05-08 20:28 34.97431 -109.14981 33875 ft 506 kts 207°
2026-05-08 20:29 34.91388 -109.19219 33871 ft 498 kts 222°
2026-05-08 20:29 34.86928 -109.25516 33864 ft 488 kts 243°
2026-05-08 20:30 34.83922 -109.32874 33909 ft 489 kts 242°
2026-05-08 20:30 34.79515 -109.39256 33952 ft 499 kts 225°
2026-05-08 20:31 34.73768 -109.44076 34001 ft 504 kts 214°
2026-05-08 20:31 34.67767 -109.48515 34036 ft 504 kts 214°
2026-05-08 20:32 34.61777 -109.52957 34055 ft 504 kts 214°
2026-05-08 20:32 34.55816 -109.57356 34050 ft 505 kts 214°
2026-05-08 20:33 34.49815 -109.61787 34028 ft 505 kts 214°
2026-05-08 20:33 34.43811 -109.66206 33896 ft 505 kts 214°
2026-05-08 20:34 34.37795 -109.70631 34001 ft 505 kts 214°
2026-05-08 20:35 34.28774 -109.77249 34082 ft 505 kts 214°
2026-05-08 20:35 34.22760 -109.81652 34116 ft 504 kts 214°
2026-05-08 20:36 34.16805 -109.86004 34121 ft 502 kts 214°
2026-05-08 20:36 34.10828 -109.90365 34095 ft 501 kts 214°
2026-05-08 20:37 34.04853 -109.94718 34048 ft 503 kts 213°
2026-05-08 20:37 33.98838 -109.99092 33992 ft 505 kts 213°
2026-05-08 20:38 33.92818 -110.03462 33926 ft 505 kts 213°
2026-05-08 20:38 33.86835 -110.07799 33889 ft 504 kts 213°
2026-05-08 20:39 33.80819 -110.12152 33881 ft 505 kts 213°
2026-05-08 20:39 33.74809 -110.16494 33876 ft 502 kts 213°
2026-05-08 20:40 33.68859 -110.20783 33301 ft 488 kts 213°
2026-05-08 20:40 33.65922 -110.22900 31155 ft 498 kts 213°
2026-05-08 20:40 33.62935 -110.25055 29062 ft 503 kts 212°
2026-05-08 20:40 33.59925 -110.27219 26845 ft 507 kts 212°
2026-05-08 20:41 33.56943 -110.29354 25690 ft 488 kts 212°
2026-05-08 20:41 33.54098 -110.31396 24166 ft 480 kts 211°
2026-05-08 20:41 33.51267 -110.33433 23070 ft 465 kts 211°
2026-05-08 20:41 33.48573 -110.35363 22441 ft 437 kts 211°
2026-05-08 20:42 33.45982 -110.37214 21099 ft 432 kts 211°
2026-05-08 20:42 33.43426 -110.39046 19989 ft 423 kts 212°
2026-05-08 20:42 33.40912 -110.40849 18770 ft 419 kts 212°
2026-05-08 20:42 33.38430 -110.42622 17622 ft 413 kts 212°
2026-05-08 20:43 33.35985 -110.44368 16479 ft 406 kts 212°
2026-05-08 20:43 33.33573 -110.46090 15341 ft 400 kts 212°
2026-05-08 20:43 33.31201 -110.47783 14295 ft 394 kts 212°
2026-05-08 20:43 33.28868 -110.49446 13216 ft 388 kts 211°
2026-05-08 20:44 33.26605 -110.51058 12852 ft 364 kts 211°
2026-05-08 20:44 33.24521 -110.52539 12837 ft 334 kts 212°
2026-05-08 20:44 33.22606 -110.53903 12866 ft 308 kts 212°
2026-05-08 20:44 33.20823 -110.55171 12869 ft 291 kts 212°
2026-05-08 20:45 33.19105 -110.56397 12875 ft 295 kts 212°
2026-05-08 20:45 33.17884 -110.57269 12886 ft 313 kts 211°
2026-05-08 20:45 33.15222 -110.59159 12893 ft 356 kts 211°
2026-05-08 20:45 33.13014 -110.60723 12903 ft 380 kts 212°
2026-05-08 20:46 33.10708 -110.62369 12901 ft 387 kts 211°
2026-05-08 20:46 33.08403 -110.63994 12896 ft 384 kts 211°
2026-05-08 20:46 33.06115 -110.65609 12905 ft 381 kts 212°
2026-05-08 20:46 33.03838 -110.67227 12901 ft 384 kts 212°
2026-05-08 20:47 33.01537 -110.68864 12910 ft 385 kts 212°
2026-05-08 20:47 32.99230 -110.70489 12903 ft 386 kts 212°
2026-05-08 20:47 32.96918 -110.72120 12906 ft 385 kts 211°
2026-05-08 20:47 32.94616 -110.73746 12858 ft 379 kts 212°
2026-05-08 20:48 32.92382 -110.75327 11695 ft 374 kts 212°
2026-05-08 20:48 32.90150 -110.76900 10626 ft 370 kts 212°
2026-05-08 20:48 32.87967 -110.78438 9943 ft 356 kts 212°
2026-05-08 20:48 32.85946 -110.79863 9872 ft 328 kts 212°
2026-05-08 20:49 32.83990 -110.81242 8926 ft 328 kts 213°
2026-05-08 20:49 32.82030 -110.82626 8103 ft 325 kts 214°
2026-05-08 20:49 32.80106 -110.83977 7395 ft 318 kts 213°
2026-05-08 20:49 32.78213 -110.85306 6701 ft 313 kts 214°
2026-05-08 20:50 32.76355 -110.86614 6020 ft 308 kts 214°
2026-05-08 20:50 32.74572 -110.87864 5921 ft 288 kts 214°
2026-05-08 20:50 32.72865 -110.89058 5924 ft 280 kts 214°
2026-05-08 20:50 32.71225 -110.90217 5913 ft 270 kts 214°
2026-05-08 20:51 32.69625 -110.91339 5917 ft 265 kts 214°
2026-05-08 20:51 32.68036 -110.92452 5918 ft 267 kts 214°
2026-05-08 20:51 32.66426 -110.93587 5924 ft 271 kts 214°
2026-05-08 20:51 32.64799 -110.94729 5936 ft 272 kts 215°
2026-05-08 20:52 32.63168 -110.95869 5940 ft 271 kts 213°
2026-05-08 20:52 32.61570 -110.96988 5948 ft 269 kts 213°
2026-05-08 20:52 32.59987 -110.98092 5947 ft 257 kts 214°
2026-05-08 20:52 32.58497 -110.99131 5936 ft 240 kts 215°
2026-05-08 20:53 32.57103 -111.00108 5935 ft 225 kts 214°
2026-05-08 20:53 32.55785 -111.01029 5932 ft 217 kts 216°
2026-05-08 20:53 32.54484 -111.01943 5631 ft 220 kts 217°
2026-05-08 20:53 32.53167 -111.02871 5306 ft 221 kts 214°
2026-05-08 20:54 32.51848 -111.03807 5131 ft 220 kts 215°
2026-05-08 20:54 32.50548 -111.04730 4980 ft 214 kts 218°
2026-05-08 20:54 32.49356 -111.05778 4576 ft 215 kts 226°
2026-05-08 20:54 32.48236 -111.06909 4398 ft 208 kts 223°
2026-05-08 20:55 32.47123 -111.08052 4126 ft 208 kts 224°
2026-05-08 20:55 32.46072 -111.09181 3895 ft 204 kts 227°
2026-05-08 20:55 32.45125 -111.10303 3859 ft 183 kts 241°
2026-05-08 20:55 32.44662 -111.11665 3593 ft 179 kts 263°
2026-05-08 20:56 32.44557 -111.13129 3321 ft 179 kts 269°
2026-05-08 20:56 32.44469 -111.14577 3124 ft 170 kts 268°
2026-05-08 20:56 32.44366 -111.15947 2992 ft 165 kts 269°
2026-05-08 20:56 32.44272 -111.17289 2985 ft 163 kts 269°
2026-05-08 20:57 32.44200 -111.18632 2999 ft 166 kts 267°
2026-05-08 20:57 32.44162 -111.20026 2999 ft 172 kts 269°
2026-05-08 20:57 32.44111 -111.21438 3000 ft 168 kts 268°
2026-05-08 20:57 32.44247 -111.22784 2997 ft 165 kts 288°
2026-05-08 20:58 32.44749 -111.24006 3006 ft 164 kts 307°
2026-05-08 20:58 32.45475 -111.24992 3000 ft 159 kts 309°
2026-05-08 20:58 32.46166 -111.25984 2989 ft 156 kts 308°
2026-05-08 20:58 32.46830 -111.26980 3018 ft 144 kts 308°
2026-05-08 20:59 32.47358 -111.27814 2937 ft 121 kts 306°
2026-05-08 20:59 32.47875 -111.28607 2962 ft 122 kts 308°
2026-05-08 20:59 32.48501 -111.29363 2940 ft 133 kts 314°
2026-05-08 20:59 32.49144 -111.30195 2638 ft 134 kts 310°
2026-05-08 21:00 32.49696 -111.30969 2272 ft 117 kts 310°
2026-05-08 21:00 32.50236 -111.31652 1959 ft 110 kts 314°
2026-05-08 21:00 32.50722 -111.32229 1893 ft 85 kts 315°
2026-05-08 21:00 32.51043 -111.32607 1885 ft 48 kts 314°
2026-05-08 21:01 32.51239 -111.32834 1885 ft 33 kts 315°
2026-05-08 21:01 32.51389 -111.33010 1884 ft 30 kts 315°
2026-05-08 21:01 32.51532 -111.33183 1880 ft 30 kts 314°
2026-05-08 21:01 32.51669 -111.33287 1878 ft 19 kts 358°
2026-05-08 21:02 32.51734 -111.33224 1879 ft 14 kts 95°
2026-05-08 21:02 32.51682 -111.33124 1880 ft 16 kts 141°
2026-05-08 21:02 32.51592 -111.33022 1881 ft 19 kts 133°
2026-05-08 21:02 32.51494 -111.32896 1883 ft 22 kts 133°